Nampa, ID

10:36 AM MDT on August 23, 2017 (GMT -0600)
Nampa

Weather History for KMAN - December, 2012

Change the Weather History Date:

Thursday, December 6, 2012

  Actual Average (KBOI) Record (KBOI)
Temperature  
Mean Temperature 38 °F -  
Max Temperature 44 °F 40 °F 63 °F (1987)
Min Temperature 30 °F 27 °F 0 °F (1992)
Degree Days  
Heating Degree Days 27    
Moisture  
Dew Point 32 °F    
Average Humidity 79    
Maximum Humidity 100    
Minimum Humidity 53    
Precipitation  
Precipitation 0.00 in - - ()
Sea Level Pressure  
Sea Level Pressure 30.10 in    
Wind  
Wind Speed 2 mph (NNW)    
Max Wind Speed 8 mph    
Max Gust Speed -    
Visibility 10 miles    
Events      
Averages and records for this station are not official NWS values.
T = Trace of Precipitation, MM = Missing Value Source: NWS Daily Summary

Daily Weather History Graph

Daily Weather History Graph

Search for Another Location

Airport or City:

Trip Planner

Search our weather history database for the weather conditions in past years. The results will help you decide how hot, cold, wet, or windy it might be!

Date:

Astronomy

Dec. 06, 2012 Rise Set
Actual Time 8:05 AM MST 5:09 PM MST
Civil Twilight 7:32 AM MST 5:41 PM MST
Nautical Twilight 6:56 AM MST 6:17 PM MST
Astronomical Twilight 6:22 AM MST 6:52 PM MST
Moon 12:13 AM MST (12/6) 12:49 PM MST (12/6)
Length of Visible Light 10h 09m
Length of Day
9h 04m
Waning Gibbous, 48% of the Moon is Illuminated
Dec 6
Waning Gibbous
Dec 13
New
Dec 19
First Quarter
Dec 28
Full
Jan 4
Last Quarter

Hourly Weather History & Observations

Time (MST) Temp. Windchill Dew Point Humidity Pressure Visibility Wind Dir Wind Speed Gust Speed Precip Events Conditions
6:35 AM 35.6 °F - 32.0 °F 87% 30.11 in 10.0 mi Calm Calm - N/A   Overcast
6:55 AM 35.6 °F - 32.0 °F 87% 30.11 in 10.0 mi Calm Calm - N/A   Overcast
7:15 AM 35.6 °F - 32.0 °F 87% 30.11 in 10.0 mi Calm Calm - N/A   Overcast
7:35 AM 35.6 °F - 32.0 °F 87% 30.11 in 10.0 mi Calm Calm - N/A   Mostly Cloudy
7:55 AM 35.6 °F - 32.0 °F 87% 30.10 in 10.0 mi Calm Calm - N/A   Mostly Cloudy
8:15 AM 35.6 °F - 32.0 °F 87% 30.10 in 10.0 mi Calm Calm - N/A   Scattered Clouds
8:35 AM 33.8 °F - 33.8 °F 100% 30.10 in 10.0 mi Calm Calm - N/A   Clear
8:55 AM 33.8 °F - 33.8 °F 100% 30.11 in 10.0 mi Calm Calm - N/A   Clear
9:15 AM 35.6 °F - 35.6 °F 100% 30.11 in 10.0 mi Calm Calm - N/A   Clear
9:35 AM 35.6 °F - 35.6 °F 100% 30.11 in 10.0 mi Calm Calm - N/A   Clear
9:55 AM 37.4 °F - 35.6 °F 93% 30.11 in 10.0 mi Calm Calm - N/A   Clear
10:15 AM 37.4 °F 33.8 °F 33.8 °F 87% 30.12 in 10.0 mi NNW 4.6 mph - N/A   Partly Cloudy
10:35 AM 37.4 °F 33.8 °F 33.8 °F 87% 30.12 in 10.0 mi NW 4.6 mph - N/A   Partly Cloudy
10:55 AM 37.4 °F 32.8 °F 32.0 °F 81% 30.13 in 10.0 mi NNW 5.8 mph - N/A   Clear
11:15 AM 37.4 °F 34.9 °F 32.0 °F 81% 30.12 in 10.0 mi NNW 3.5 mph - N/A   Mostly Cloudy
11:35 AM 39.2 °F 37.0 °F 33.8 °F 81% 30.11 in 10.0 mi NW 3.5 mph - N/A   Overcast
11:55 AM 39.2 °F 35.9 °F 33.8 °F 81% 30.10 in 10.0 mi NNW 4.6 mph - N/A   Mostly Cloudy
12:15 PM 41.0 °F 38.0 °F 35.6 °F 81% 30.11 in 10.0 mi NNW 4.6 mph - N/A   Mostly Cloudy
12:35 PM 41.0 °F 38.0 °F 35.6 °F 81% 30.10 in 10.0 mi NNW 4.6 mph - N/A   Overcast
12:55 PM 41.0 °F 38.0 °F 35.6 °F 81% 30.09 in 10.0 mi NNW 4.6 mph - N/A   Overcast
1:15 PM 41.0 °F 37.1 °F 33.8 °F 76% 30.08 in 10.0 mi NNW 5.8 mph - N/A   Overcast
1:35 PM 42.8 °F 38.6 °F 32.0 °F 66% 30.08 in 10.0 mi NNW 6.9 mph - N/A   Overcast
1:55 PM 42.8 °F 38.6 °F 32.0 °F 66% 30.08 in 10.0 mi North 6.9 mph - N/A   Overcast
2:15 PM 44.6 °F 40.7 °F 32.0 °F 61% 30.08 in 10.0 mi NNW 6.9 mph - N/A   Overcast
2:35 PM 44.6 °F 40.2 °F 30.2 °F 57% 30.07 in 10.0 mi North 8.1 mph - N/A   Overcast
2:55 PM 44.6 °F 42.2 °F 32.0 °F 61% 30.06 in 10.0 mi North 4.6 mph - N/A   Overcast
3:35 PM 44.6 °F 41.4 °F 30.2 °F 57% 30.07 in 10.0 mi North 5.8 mph - N/A   Scattered Clouds
3:55 PM 44.6 °F 42.2 °F 28.4 °F 53% 30.06 in 10.0 mi North 4.6 mph - N/A   Scattered Clouds
4:35 PM 42.8 °F - 30.2 °F 61% 30.06 in 10.0 mi Calm Calm - N/A   Partly Cloudy
4:55 PM 41.0 °F - 32.0 °F 70% 30.06 in 10.0 mi Calm Calm - N/A   Clear
5:15 PM 41.0 °F 39.0 °F 30.2 °F 65% 30.07 in 10.0 mi NNW 3.5 mph - N/A   Scattered Clouds
6:15 PM 41.0 °F 38.0 °F 30.2 °F 65% 30.08 in 10.0 mi NW 4.6 mph - N/A   Mostly Cloudy
6:35 PM 39.2 °F 37.0 °F 28.4 °F 65% 30.08 in 10.0 mi NW 3.5 mph - N/A   Mostly Cloudy
6:55 PM 39.2 °F 37.0 °F 30.2 °F 70% 30.09 in 10.0 mi WNW 3.5 mph - N/A   Mostly Cloudy
7:15 PM 39.2 °F 37.0 °F 28.4 °F 65% 30.09 in 10.0 mi NW 3.5 mph - N/A   Overcast
7:35 PM 39.2 °F 37.0 °F 28.4 °F 65% 30.10 in 10.0 mi NW 3.5 mph - N/A   Overcast
7:55 PM 39.2 °F 35.9 °F 30.2 °F 70% 30.11 in 10.0 mi NNW 4.6 mph - N/A   Overcast
8:15 PM 39.2 °F 35.9 °F 30.2 °F 70% 30.12 in 10.0 mi NW 4.6 mph - N/A   Overcast
8:35 PM 37.4 °F 34.9 °F 28.4 °F 70% 30.12 in 10.0 mi NW 3.5 mph - N/A   Mostly Cloudy
8:55 PM 37.4 °F - 28.4 °F 70% 30.12 in 10.0 mi Calm Calm - N/A   Clear
9:15 PM 35.6 °F - 28.4 °F 75% 30.13 in 10.0 mi Calm Calm - N/A   Clear
9:35 PM 33.8 °F - 30.2 °F 87% 30.13 in 10.0 mi Calm Calm - N/A   Clear
9:55 PM 35.6 °F 32.8 °F 32.0 °F 87% 30.14 in 10.0 mi WNW 3.5 mph - N/A   Partly Cloudy
10:15 PM 35.6 °F 32.8 °F 30.2 °F 81% 30.14 in 10.0 mi WNW 3.5 mph - N/A   Partly Cloudy
10:35 PM 32.0 °F - 28.4 °F 87% 30.15 in 10.0 mi Calm Calm - N/A   Partly Cloudy
10:55 PM 32.0 °F - 30.2 °F 93% 30.14 in 10.0 mi Calm Calm - N/A   Clear
11:15 PM 32.0 °F - 30.2 °F 93% 30.14 in 10.0 mi Calm Calm - N/A   Clear
11:35 PM 32.0 °F - 30.2 °F 93% 30.15 in 10.0 mi Calm Calm - N/A   Clear
11:55 PM 30.2 °F - 30.2 °F 100% 30.15 in 10.0 mi Calm Calm - N/A   Clear